ACA05YT KBOS-CYQX

Flight info

Callsign ACA05YT
Flight time 1h 49m
Altitude 37000
Route LBSTA8 LBSTA DCT ALLEX DCT YYG DCT CADIL DCT IKBUN
Aircraft A320/M-SDE3FGHIRWY/LB1

Departure

Time 2026-05-05 11:45
Airport Boston Logan International Airport (KBOS)

Arrival

Time 2026-05-05 13:34
Airport Gander International Airport (CYQX)
Time Latitude Longitude Altitude Speed Heading
2026-05-05 11:10 42.37137 -71.02008 27 ft 0 kts 210°
2026-05-05 11:36 42.37142 -71.02005 27 ft 4 kts 211°
2026-05-05 11:36 42.37165 -71.01985 28 ft 4 kts 217°
2026-05-05 11:36 42.37186 -71.01962 29 ft 4 kts 219°
2026-05-05 11:37 42.37207 -71.01940 29 ft 4 kts 205°
2026-05-05 11:37 42.37226 -71.01935 30 ft 2 kts 143°
2026-05-05 11:37 42.37230 -71.01939 30 ft 0 kts 143°
2026-05-05 11:39 42.37219 -71.01927 30 ft 3 kts 143°
2026-05-05 11:40 42.37198 -71.01902 30 ft 7 kts 131°
2026-05-05 11:40 42.37158 -71.01818 29 ft 12 kts 123°
2026-05-05 11:40 42.37110 -71.01722 30 ft 12 kts 124°
2026-05-05 11:40 42.37055 -71.01627 30 ft 14 kts 133°
2026-05-05 11:41 42.36977 -71.01523 27 ft 18 kts 135°
2026-05-05 11:41 42.36887 -71.01397 27 ft 20 kts 134°
2026-05-05 11:41 42.36851 -71.01254 25 ft 16 kts 39°
2026-05-05 11:41 42.36936 -71.01161 26 ft 15 kts 38°
2026-05-05 11:42 42.37018 -71.01087 24 ft 14 kts 27°
2026-05-05 11:42 42.37110 -71.01028 22 ft 14 kts 26°
2026-05-05 11:42 42.37195 -71.00972 23 ft 13 kts 26°
2026-05-05 11:42 42.37272 -71.00922 22 ft 12 kts 26°
2026-05-05 11:43 42.37353 -71.00876 22 ft 15 kts 20°
2026-05-05 11:43 42.37468 -71.00820 23 ft 17 kts 19°
2026-05-05 11:43 42.37575 -71.00769 24 ft 15 kts 19°
2026-05-05 11:43 42.37620 -71.00679 26 ft 11 kts 101°
2026-05-05 11:44 42.37594 -71.00592 26 ft 6 kts 154°
2026-05-05 11:44 42.37532 -71.00602 26 ft 19 kts 194°
2026-05-05 11:44 42.37161 -71.00777 20 ft 93 kts 199°
2026-05-05 11:44 42.36367 -71.01159 71 ft 141 kts 199°
2026-05-05 11:45 42.35441 -71.01602 683 ft 144 kts 198°
2026-05-05 11:45 42.34445 -71.01844 1366 ft 152 kts 177°
2026-05-05 11:45 42.33506 -71.01058 2076 ft 175 kts 138°
2026-05-05 11:45 42.32750 -70.99657 2438 ft 198 kts 135°
2026-05-05 11:46 42.31863 -70.98104 2802 ft 221 kts 134°
2026-05-05 11:46 42.31235 -70.96105 3407 ft 245 kts 102°
2026-05-05 11:46 42.31389 -70.93645 3845 ft 277 kts 77°
2026-05-05 11:46 42.31909 -70.91047 4432 ft 293 kts 78°
2026-05-05 11:47 42.32353 -70.88364 5272 ft 299 kts 81°
2026-05-05 11:47 42.32761 -70.85587 6159 ft 304 kts 81°
2026-05-05 11:47 42.33159 -70.82758 7007 ft 308 kts 81°
2026-05-05 11:47 42.33641 -70.79913 7866 ft 314 kts 71°
2026-05-05 11:48 42.36181 -70.75167 9599 ft 316 kts 33°
2026-05-05 11:48 42.38090 -70.73744 10387 ft 314 kts 15°
2026-05-05 11:48 42.40241 -70.72809 10704 ft 336 kts 12°
2026-05-05 11:49 42.42559 -70.71860 10925 ft 360 kts 12°
2026-05-05 11:49 42.45002 -70.70873 11400 ft 372 kts 11°
2026-05-05 11:49 42.47527 -70.69988 12094 ft 376 kts
2026-05-05 11:49 42.50097 -70.69205 12818 ft 380 kts
2026-05-05 11:50 42.52701 -70.68471 13538 ft 384 kts
2026-05-05 11:50 42.55335 -70.67739 14183 ft 389 kts
2026-05-05 11:50 42.58001 -70.66984 14815 ft 393 kts
2026-05-05 11:50 42.60685 -70.66203 15444 ft 397 kts
2026-05-05 11:51 42.63399 -70.65392 16081 ft 401 kts
2026-05-05 11:51 42.66139 -70.64559 16686 ft 405 kts
2026-05-05 11:51 42.68907 -70.63740 17301 ft 409 kts
2026-05-05 11:51 42.71711 -70.63034 17909 ft 412 kts
2026-05-05 11:52 42.74551 -70.62365 18473 ft 417 kts
2026-05-05 11:52 42.77347 -70.61159 19038 ft 427 kts 19°
2026-05-05 11:52 42.79952 -70.59156 19619 ft 435 kts 33°
2026-05-05 11:52 42.82211 -70.56373 20199 ft 442 kts 47°
2026-05-05 11:53 42.84011 -70.52965 20760 ft 445 kts 56°
2026-05-05 11:53 42.85670 -70.49388 21356 ft 446 kts 56°
2026-05-05 11:53 42.87325 -70.45862 21911 ft 448 kts 56°
2026-05-05 11:53 42.89018 -70.42283 22454 ft 450 kts 55°
2026-05-05 11:54 42.90727 -70.38689 22981 ft 452 kts 55°
2026-05-05 11:54 42.92446 -70.35076 23439 ft 456 kts 55°
2026-05-05 11:54 42.94173 -70.31433 23852 ft 458 kts 55°
2026-05-05 11:54 42.95901 -70.27771 24240 ft 460 kts 55°
2026-05-05 11:55 42.97630 -70.24086 24621 ft 462 kts 55°
2026-05-05 11:55 42.99366 -70.20381 25002 ft 464 kts 55°
2026-05-05 11:55 43.01107 -70.16661 25396 ft 465 kts 55°
2026-05-05 11:55 43.02852 -70.12925 25777 ft 467 kts 55°
2026-05-05 11:56 43.04602 -70.09176 26143 ft 469 kts 55°
2026-05-05 11:56 43.06362 -70.05404 26508 ft 471 kts 54°
2026-05-05 11:56 43.08123 -70.01629 26849 ft 473 kts 54°
2026-05-05 11:56 43.09898 -69.97817 27191 ft 474 kts 54°
2026-05-05 11:57 43.11677 -69.93993 27519 ft 476 kts 54°
2026-05-05 11:57 43.13459 -69.90164 27854 ft 478 kts 54°
2026-05-05 11:57 43.15248 -69.86314 28151 ft 480 kts 54°
2026-05-05 11:57 43.17042 -69.82447 28477 ft 481 kts 54°
2026-05-05 11:58 43.18838 -69.78570 28785 ft 483 kts 54°
2026-05-05 11:58 43.20618 -69.74725 29038 ft 485 kts 54°
2026-05-05 11:58 43.22448 -69.70765 29303 ft 487 kts 54°
2026-05-05 11:58 43.24235 -69.66884 29543 ft 488 kts 54°
2026-05-05 11:59 43.26044 -69.62942 29853 ft 488 kts 54°
2026-05-05 11:59 43.27845 -69.59001 30184 ft 487 kts 54°
2026-05-05 11:59 43.29638 -69.55078 30491 ft 486 kts 54°
2026-05-05 11:59 43.31433 -69.51152 30790 ft 485 kts 54°
2026-05-05 12:00 43.33224 -69.47242 31090 ft 484 kts 54°
2026-05-05 12:00 43.35025 -69.43317 31388 ft 483 kts 54°
2026-05-05 12:00 43.36818 -69.39404 31675 ft 483 kts 54°
2026-05-05 12:00 43.38604 -69.35498 31967 ft 482 kts 54°
2026-05-05 12:01 43.40383 -69.31595 32281 ft 481 kts 54°
2026-05-05 12:01 43.42151 -69.27705 32613 ft 479 kts 54°
2026-05-05 12:01 43.43915 -69.23815 32930 ft 478 kts 54°
2026-05-05 12:01 43.45671 -69.19946 33260 ft 477 kts 54°
2026-05-05 12:02 43.47427 -69.16070 33549 ft 476 kts 54°
2026-05-05 12:02 43.49177 -69.12201 33844 ft 476 kts 54°
2026-05-05 12:02 43.50904 -69.08378 34119 ft 475 kts 54°
2026-05-05 12:02 43.52648 -69.04515 34373 ft 475 kts 54°
2026-05-05 12:03 43.54391 -69.00649 34620 ft 475 kts 54°
2026-05-05 12:03 43.56132 -68.96780 34864 ft 474 kts 54°
2026-05-05 12:03 43.57867 -68.92916 35095 ft 474 kts 54°
2026-05-05 12:03 43.59603 -68.89050 35349 ft 474 kts 54°
2026-05-05 12:04 43.61336 -68.85182 35582 ft 473 kts 54°
2026-05-05 12:04 43.63066 -68.81312 35799 ft 473 kts 54°
2026-05-05 12:04 43.64794 -68.77445 35996 ft 473 kts 54°
2026-05-05 12:04 43.66522 -68.73579 36214 ft 473 kts 54°
2026-05-05 12:05 43.68248 -68.69716 36416 ft 472 kts 54°
2026-05-05 12:05 43.69971 -68.65852 36624 ft 471 kts 54°
2026-05-05 12:05 43.71690 -68.61983 36856 ft 471 kts 54°
2026-05-05 12:05 43.73406 -68.58112 36939 ft 472 kts 54°
2026-05-05 12:06 43.76819 -68.50407 36934 ft 472 kts 54°
2026-05-05 12:06 43.80237 -68.42676 36935 ft 472 kts 55°
2026-05-05 12:07 43.83658 -68.34901 36936 ft 472 kts 55°
2026-05-05 12:07 43.87062 -68.27152 36947 ft 472 kts 54°
2026-05-05 12:08 43.89923 -68.20639 36945 ft 472 kts 54°
2026-05-05 12:08 43.93872 -68.11600 36954 ft 472 kts 55°
2026-05-05 12:09 43.97272 -68.03790 36952 ft 472 kts 55°
2026-05-05 12:09 44.00089 -67.97329 36976 ft 471 kts 54°
2026-05-05 12:10 44.03489 -67.89518 36968 ft 472 kts 54°
2026-05-05 12:10 44.06872 -67.81707 36961 ft 472 kts 55°
2026-05-05 12:11 44.10244 -67.73885 36953 ft 471 kts 55°
2026-05-05 12:11 44.13612 -67.66056 36973 ft 472 kts 55°
2026-05-05 12:12 44.16976 -67.58201 36967 ft 472 kts 55°
2026-05-05 12:12 44.20349 -67.50338 36946 ft 472 kts 55°
2026-05-05 12:13 44.23707 -67.42453 36946 ft 473 kts 55°
2026-05-05 12:13 44.27040 -67.34619 36973 ft 473 kts 55°
2026-05-05 12:14 44.30396 -67.26722 36966 ft 473 kts 55°
2026-05-05 12:14 44.33742 -67.18813 36958 ft 473 kts 55°
2026-05-05 12:15 44.37086 -67.10901 36957 ft 473 kts 55°
2026-05-05 12:15 44.40423 -67.02969 36951 ft 473 kts 55°
2026-05-05 12:16 44.44056 -66.95355 36942 ft 470 kts 50°
2026-05-05 12:16 44.47884 -66.87942 36944 ft 470 kts 50°
2026-05-05 12:17 44.51692 -66.80515 36944 ft 469 kts 50°
2026-05-05 12:17 44.55492 -66.73065 36954 ft 470 kts 50°
2026-05-05 12:18 44.59275 -66.65633 36946 ft 470 kts 50°
2026-05-05 12:18 44.63081 -66.58158 36931 ft 470 kts 50°
2026-05-05 12:19 44.66893 -66.50652 36928 ft 470 kts 50°
2026-05-05 12:19 44.70687 -66.43145 36939 ft 470 kts 50°
2026-05-05 12:20 44.74449 -66.35685 36938 ft 470 kts 50°
2026-05-05 12:20 44.78244 -66.28162 36923 ft 470 kts 50°
2026-05-05 12:21 44.82027 -66.20637 36933 ft 470 kts 50°
2026-05-05 12:21 44.85796 -66.13101 36946 ft 471 kts 50°
2026-05-05 12:22 44.89559 -66.05549 36940 ft 471 kts 50°
2026-05-05 12:22 44.93316 -65.97999 36947 ft 471 kts 50°
2026-05-05 12:23 44.97093 -65.90387 36944 ft 472 kts 50°
2026-05-05 12:23 45.00852 -65.82813 36958 ft 472 kts 50°
2026-05-05 12:24 45.04625 -65.75204 36944 ft 472 kts 50°
2026-05-05 12:24 45.08385 -65.67590 36939 ft 473 kts 50°
2026-05-05 12:25 45.12126 -65.59963 36945 ft 473 kts 51°
2026-05-05 12:25 45.15875 -65.52292 36949 ft 473 kts 51°
2026-05-05 12:26 45.19632 -65.44600 36941 ft 473 kts 51°
2026-05-05 12:26 45.23363 -65.36950 36943 ft 473 kts 51°
2026-05-05 12:27 45.27102 -65.29253 36955 ft 474 kts 51°
2026-05-05 12:27 45.30841 -65.21545 36950 ft 474 kts 51°
2026-05-05 12:28 45.34573 -65.13849 36947 ft 474 kts 51°
2026-05-05 12:28 45.38319 -65.06082 36945 ft 474 kts 51°
2026-05-05 12:29 45.41948 -64.98538 36960 ft 474 kts 51°
2026-05-05 12:29 45.45649 -64.90823 36950 ft 475 kts 51°
2026-05-05 12:30 45.49344 -64.83096 36940 ft 475 kts 51°
2026-05-05 12:30 45.53055 -64.75302 36933 ft 475 kts 51°
2026-05-05 12:31 45.56767 -64.67493 36954 ft 475 kts 51°
2026-05-05 12:31 45.60473 -64.59685 36934 ft 475 kts 51°
2026-05-05 12:32 45.64182 -64.51864 36921 ft 476 kts 51°
2026-05-05 12:32 45.67893 -64.44023 36907 ft 476 kts 51°
2026-05-05 12:33 45.71589 -64.36166 36926 ft 476 kts 51°
2026-05-05 12:33 45.75275 -64.28291 36914 ft 476 kts 51°
2026-05-05 12:34 45.78959 -64.20407 36908 ft 476 kts 51°
2026-05-05 12:34 45.82655 -64.12508 36906 ft 477 kts 51°
2026-05-05 12:35 45.86320 -64.04642 36909 ft 477 kts 51°
2026-05-05 12:35 45.89995 -63.96711 36908 ft 477 kts 51°
2026-05-05 12:36 45.93664 -63.88777 36906 ft 477 kts 51°
2026-05-05 12:36 45.97330 -63.80822 36907 ft 477 kts 51°
2026-05-05 12:37 46.00991 -63.72866 36941 ft 478 kts 51°
2026-05-05 12:37 46.04652 -63.64888 36928 ft 478 kts 51°
2026-05-05 12:38 46.08315 -63.56893 36907 ft 478 kts 51°
2026-05-05 12:38 46.11989 -63.48851 36916 ft 479 kts 51°
2026-05-05 12:39 46.15599 -63.40918 36947 ft 479 kts 51°
2026-05-05 12:39 46.19221 -63.32913 36927 ft 480 kts 52°
2026-05-05 12:40 46.22865 -63.24848 36934 ft 480 kts 52°
2026-05-05 12:40 46.26506 -63.16767 36928 ft 480 kts 52°
2026-05-05 12:41 46.30425 -63.09028 36939 ft 475 kts 45°
2026-05-05 12:41 46.34607 -63.01623 36932 ft 475 kts 45°
2026-05-05 12:42 46.38773 -62.94184 36929 ft 476 kts 45°
2026-05-05 12:42 46.42938 -62.86729 36951 ft 476 kts 45°
2026-05-05 12:43 46.47101 -62.79270 36938 ft 476 kts 45°
2026-05-05 12:43 46.51265 -62.71796 36935 ft 476 kts 45°
2026-05-05 12:44 46.55399 -62.64361 36930 ft 476 kts 45°
2026-05-05 12:44 46.59551 -62.56840 36929 ft 477 kts 45°
2026-05-05 12:45 46.63712 -62.49291 36913 ft 476 kts 45°
2026-05-05 12:45 46.67864 -62.41753 36923 ft 477 kts 45°
2026-05-05 12:46 46.71994 -62.34220 36914 ft 477 kts 46°
2026-05-05 12:46 46.76131 -62.26669 36930 ft 478 kts 46°
2026-05-05 12:47 46.80288 -62.19068 36921 ft 479 kts 46°
2026-05-05 12:47 46.84427 -62.11460 36921 ft 479 kts 46°
2026-05-05 12:48 46.88572 -62.03802 36919 ft 479 kts 46°
2026-05-05 12:48 46.92686 -61.96210 36936 ft 480 kts 46°
2026-05-05 12:49 46.96838 -61.88531 36923 ft 480 kts 46°
2026-05-05 12:49 47.00960 -61.80867 36923 ft 481 kts 46°
2026-05-05 12:50 47.05109 -61.73138 36940 ft 481 kts 46°
2026-05-05 12:50 47.09229 -61.65451 36915 ft 482 kts 46°
2026-05-05 12:51 47.13379 -61.57663 36902 ft 482 kts 46°
2026-05-05 12:51 47.17492 -61.49932 36890 ft 483 kts 46°
2026-05-05 12:52 47.21620 -61.42158 36907 ft 483 kts 46°
2026-05-05 12:52 47.25762 -61.34343 36894 ft 483 kts 46°
2026-05-05 12:53 47.29882 -61.26558 36891 ft 484 kts 46°
2026-05-05 12:53 47.34034 -61.18665 36890 ft 485 kts 46°
2026-05-05 12:54 47.40197 -61.06895 36898 ft 485 kts 46°
2026-05-05 12:55 47.44340 -60.98977 36900 ft 485 kts 47°
2026-05-05 12:55 47.48461 -60.91076 36907 ft 485 kts 47°
2026-05-05 12:56 47.52549 -60.83204 36920 ft 485 kts 47°
2026-05-05 12:56 47.56660 -60.75276 36911 ft 485 kts 47°
2026-05-05 12:57 47.60097 -60.68616 36899 ft 485 kts 47°
2026-05-05 12:57 47.64166 -60.60710 36895 ft 485 kts 47°
2026-05-05 12:58 47.68252 -60.52773 36910 ft 485 kts 48°
2026-05-05 12:58 47.72328 -60.44754 36900 ft 486 kts 51°
2026-05-05 12:59 47.75327 -60.35720 36894 ft 494 kts 65°
2026-05-05 12:59 47.77859 -60.26225 36890 ft 494 kts 64°
2026-05-05 13:00 47.81677 -60.11959 36910 ft 494 kts 65°
2026-05-05 13:01 47.86700 -59.92907 36894 ft 495 kts 65°
2026-05-05 13:01 47.89201 -59.83354 36897 ft 495 kts 65°
2026-05-05 13:02 47.91710 -59.73794 36894 ft 495 kts 66°
2026-05-05 13:02 47.94185 -59.64284 36896 ft 495 kts 66°
2026-05-05 13:03 47.96665 -59.54704 36905 ft 495 kts 66°
2026-05-05 13:03 47.99133 -59.45110 36902 ft 495 kts 66°
2026-05-05 13:04 48.01596 -59.35508 36914 ft 495 kts 66°
2026-05-05 13:04 48.04063 -59.25889 36929 ft 495 kts 66°
2026-05-05 13:05 48.06527 -59.16262 36907 ft 495 kts 66°
2026-05-05 13:05 48.08966 -59.06626 36888 ft 496 kts 66°
2026-05-05 13:06 48.11400 -58.96979 36876 ft 496 kts 66°
2026-05-05 13:06 48.13823 -58.87368 36870 ft 496 kts 67°
2026-05-05 13:07 48.16256 -58.77634 36881 ft 496 kts 67°
2026-05-05 13:07 48.18674 -58.67951 36882 ft 497 kts 67°
2026-05-05 13:08 48.21084 -58.58250 36875 ft 497 kts 67°
2026-05-05 13:08 48.23490 -58.48523 36863 ft 497 kts 67°
2026-05-05 13:09 48.25894 -58.38780 36872 ft 498 kts 68°
2026-05-05 13:09 48.28275 -58.29073 36865 ft 499 kts 68°
2026-05-05 13:10 48.30652 -58.19292 36838 ft 499 kts 68°
2026-05-05 13:10 48.33032 -58.09495 36835 ft 499 kts 68°
2026-05-05 13:11 48.35410 -57.99693 36822 ft 499 kts 68°
2026-05-05 13:11 48.37773 -57.89890 36835 ft 498 kts 68°
2026-05-05 13:12 48.40120 -57.80078 36816 ft 498 kts 68°
2026-05-05 13:12 48.42464 -57.70270 36813 ft 498 kts 68°
2026-05-05 13:13 48.44797 -57.60449 36793 ft 498 kts 68°
2026-05-05 13:13 48.47123 -57.50608 36794 ft 499 kts 68°
2026-05-05 13:14 48.49449 -57.40734 36801 ft 499 kts 69°
2026-05-05 13:14 48.51742 -57.30945 36797 ft 499 kts 69°
2026-05-05 13:15 48.54051 -57.21081 36782 ft 499 kts 69°
2026-05-05 13:15 48.56349 -57.11193 36764 ft 499 kts 69°
2026-05-05 13:16 48.57495 -57.06244 36211 ft 501 kts 69°
2026-05-05 13:16 48.58655 -57.01231 34935 ft 512 kts 69°
2026-05-05 13:16 48.59826 -56.96151 34144 ft 510 kts 69°
2026-05-05 13:16 48.60986 -56.91106 33132 ft 510 kts 68°
2026-05-05 13:17 48.62138 -56.86070 31699 ft 503 kts 68°
2026-05-05 13:17 48.63270 -56.81086 30144 ft 497 kts 68°
2026-05-05 13:17 48.64379 -56.76183 28735 ft 489 kts 68°
2026-05-05 13:17 48.65475 -56.71335 28087 ft 483 kts 68°
2026-05-05 13:18 48.66537 -56.66636 26912 ft 489 kts 68°
2026-05-05 13:18 48.67639 -56.61785 26148 ft 482 kts 68°
2026-05-05 13:18 48.68723 -56.57016 25333 ft 477 kts 68°
2026-05-05 13:18 48.69797 -56.52288 24528 ft 474 kts 68°
2026-05-05 13:19 48.70860 -56.47581 23751 ft 471 kts 68°
2026-05-05 13:19 48.71913 -56.42895 22931 ft 469 kts 69°
2026-05-05 13:19 48.72955 -56.38237 22182 ft 465 kts 69°
2026-05-05 13:19 48.73974 -56.33683 21462 ft 460 kts 69°
2026-05-05 13:20 48.74997 -56.29113 20779 ft 456 kts 69°
2026-05-05 13:20 48.76010 -56.24580 20132 ft 452 kts 69°
2026-05-05 13:20 48.77011 -56.20076 19494 ft 449 kts 69°
2026-05-05 13:20 48.77998 -56.15615 18884 ft 445 kts 69°
2026-05-05 13:21 48.78976 -56.11179 18300 ft 442 kts 70°
2026-05-05 13:21 48.79948 -56.06765 17701 ft 440 kts 70°
2026-05-05 13:21 48.80880 -56.02369 17161 ft 435 kts 71°
2026-05-05 13:21 48.81757 -55.98003 16643 ft 430 kts 72°
2026-05-05 13:22 48.82594 -55.93675 16130 ft 425 kts 72°
2026-05-05 13:22 48.83403 -55.89430 15883 ft 413 kts 72°
2026-05-05 13:22 48.84199 -55.85252 15343 ft 411 kts 72°
2026-05-05 13:22 48.84997 -55.81092 14812 ft 408 kts 72°
2026-05-05 13:23 48.85796 -55.76966 14253 ft 407 kts 72°
2026-05-05 13:23 48.86596 -55.72853 13694 ft 405 kts 72°
2026-05-05 13:23 48.87397 -55.68751 13077 ft 404 kts 71°
2026-05-05 13:23 48.88191 -55.64675 12503 ft 401 kts 71°
2026-05-05 13:24 48.88978 -55.60622 11921 ft 398 kts 72°
2026-05-05 13:24 48.89759 -55.56594 11329 ft 396 kts 71°
2026-05-05 13:24 48.90531 -55.52592 10818 ft 392 kts 72°
2026-05-05 13:24 48.91281 -55.48696 10688 ft 376 kts 72°
2026-05-05 13:25 48.92000 -55.44942 10557 ft 363 kts 72°
2026-05-05 13:25 48.92690 -55.41326 10427 ft 350 kts 72°
2026-05-05 13:25 48.93358 -55.37826 10264 ft 340 kts 72°
2026-05-05 13:25 48.94015 -55.34388 10030 ft 334 kts 72°
2026-05-05 13:26 48.94662 -55.31002 9954 ft 334 kts 72°
2026-05-05 13:26 48.95307 -55.27619 9346 ft 343 kts 72°
2026-05-05 13:26 48.95963 -55.24155 9057 ft 337 kts 72°
2026-05-05 13:26 48.96600 -55.20778 8571 ft 332 kts 72°
2026-05-05 13:27 48.97236 -55.17408 7822 ft 330 kts 72°
2026-05-05 13:27 48.97870 -55.14058 7118 ft 328 kts 72°
2026-05-05 13:27 48.98502 -55.10732 6422 ft 326 kts 72°
2026-05-05 13:27 48.99130 -55.07413 5635 ft 326 kts 72°
2026-05-05 13:28 48.99736 -55.04180 5367 ft 306 kts 72°
2026-05-05 13:28 49.00293 -55.01173 5240 ft 285 kts 72°
2026-05-05 13:28 49.00816 -54.98358 5100 ft 267 kts 73°
2026-05-05 13:28 49.01307 -54.95723 5043 ft 250 kts 72°
2026-05-05 13:29 49.01768 -54.93230 4890 ft 240 kts 76°
2026-05-05 13:29 49.01921 -54.90765 4795 ft 232 kts 98°
2026-05-05 13:29 49.01598 -54.88368 4588 ft 228 kts 116°
2026-05-05 13:29 49.01115 -54.86072 4266 ft 225 kts 116°
2026-05-05 13:30 49.00671 -54.83926 3983 ft 206 kts 117°
2026-05-05 13:30 49.00259 -54.81952 3706 ft 191 kts 118°
2026-05-05 13:30 48.99864 -54.80077 3452 ft 181 kts 118°
2026-05-05 13:30 48.99489 -54.78297 3214 ft 173 kts 119°
2026-05-05 13:31 48.99124 -54.76570 2988 ft 170 kts 120°
2026-05-05 13:31 48.98769 -54.74884 2747 ft 165 kts 119°
2026-05-05 13:31 48.98419 -54.73229 2518 ft 163 kts 119°
2026-05-05 13:31 48.98075 -54.71596 2299 ft 161 kts 120°
2026-05-05 13:32 48.97734 -54.69981 2081 ft 159 kts 121°
2026-05-05 13:32 48.97397 -54.68385 1863 ft 158 kts 119°
2026-05-05 13:32 48.97062 -54.66787 1652 ft 159 kts 119°
2026-05-05 13:32 48.96727 -54.65195 1449 ft 157 kts 119°
2026-05-05 13:33 48.96390 -54.63635 1190 ft 154 kts 118°
2026-05-05 13:33 48.96075 -54.62093 999 ft 153 kts 115°
2026-05-05 13:33 48.95781 -54.60565 831 ft 148 kts 116°
2026-05-05 13:33 48.95453 -54.59100 642 ft 146 kts 121°
2026-05-05 13:34 48.95134 -54.57678 472 ft 143 kts 115°
2026-05-05 13:34 48.94850 -54.56406 444 ft 99 kts 108°
2026-05-05 13:34 48.94726 -54.55821 435 ft 33 kts 108°
2026-05-05 13:34 48.94652 -54.55511 443 ft 20 kts 111°
2026-05-05 13:35 48.94601 -54.55315 434 ft 20 kts 107°
2026-05-05 13:35 48.94569 -54.55156 430 ft 5 kts 102°
2026-05-05 13:35 48.94584 -54.55152 435 ft 5 kts 343°
2026-05-05 13:35 48.94611 -54.55245 434 ft 16 kts 287°
2026-05-05 13:36 48.94656 -54.55466 438 ft 26 kts 288°
2026-05-05 13:36 48.94708 -54.55729 443 ft 26 kts 285°
2026-05-05 13:36 48.94769 -54.55991 442 ft 28 kts 291°
2026-05-05 13:36 48.94832 -54.56275 436 ft 28 kts 288°
2026-05-05 13:37 48.94888 -54.56548 448 ft 26 kts 288°
2026-05-05 13:37 48.94929 -54.56755 451 ft 11 kts 288°
2026-05-05 13:37 48.94947 -54.56859 453 ft 9 kts 275°
2026-05-05 13:37 48.94912 -54.56916 454 ft 9 kts 192°
2026-05-05 13:38 48.94828 -54.56954 453 ft 15 kts 199°
2026-05-05 13:38 48.94773 -54.56981 453 ft 4 kts 198°
2026-05-05 13:38 48.94743 -54.56996 453 ft 5 kts 198°
2026-05-05 13:38 48.94712 -54.57028 453 ft 5 kts 240°
2026-05-05 13:39 48.94718 -54.57089 454 ft 9 kts 284°
2026-05-05 13:39 48.94741 -54.57202 455 ft 12 kts 287°
2026-05-05 13:39 48.94695 -54.57227 455 ft 11 kts 155°
2026-05-05 13:39 48.94670 -54.57208 454 ft 0 kts 152°